Temperature
5 5 5 5 5 5 5 5 5 5 5 5 6 6 6 5 6 6 6 5 5 5 5 5 5 5 5 5 5 5 5 4 4 5 5 5 5 5 5 5 5 5 5
4 4 4 4 4 4 4 4 5 5 5 5 5 5 5 5 5 5 5 5 5 5 5 5 5 5 5 5 5 5 4 4 4 4 5 4 5 4 4 4 4 4 5
4 4 4 4 4 4 4 4 4 4 4 4 4 5 5 5 4 4 5 4 4 4 4 4 4 4 4 4 4 4 4 4 4 4 4 4 4 4 4 4 4 4 4
4 4 4 4 4 4 3 3 3 4 4 4 4 4 4 4 4 4 4 4 4 4 4 4 4 4 4 4 4 4 4 3 3 3 3 3 3 3 3 3 3 4 4
3 3 3 3 3 3 3 3 3 3 3 3 3 3 3 3 3 3 4 4 3 3 3 3 3 3 3 3 3 3 3 3 3 3 3 2 2 2 2 2 3 3 3
3 3 3 3 3 3 2 2 2 2 3 3 3 3 3 3 3 3 3 3 3 3 3 3 3 3 3 3 3 3 2 2 3 2 2 2 2 2 2 2 2 2 2
2 2 2 2 2 2 2 2 2 2 2 2 2 2 2 2 2 2 2 2 2 2 2 3 3 3 2 2 2 2 2 2 2 2 2 2 2 2 2 2 2 2 2
2 2 2 2 2 1 1 1 1 1 1 1 2 2 2 2 2 2 2 2 2 2 2 2 2 2 2 2 2 2 2 2 2 2 1 1 2 2 2 2 2 2 2
1 1 1 1 1 1 1 1 1 1 1 1 1 1 1 1 1 1 1 1 1 1 1 1 1 1 2 1 1 2 2 2 2 1 1 2 2 2 2 2 2 1 2
1 1 1 1 1 1 1 0 0 0 0 0 0 0 0 0 0 1 1 1 1 1 1 1 1 1 1 1 1 1 1 1 1 2 2 2 2 2 2 1 1 1 1
0 0 0 0 0 0 0 -0 -0 -0 -0 -0 -0 -0 -0 -0 -0 0 0 0 0 -0 -0 0 0 0 0 0 0 0 1 1 1 1 1 1 1 2 2 2 1 1 1
-0 -0 -0 -0 -0 -0 -0 -0 -0 -1 -1 -1 -1 -1 -1 -1 -1 -1 -0 -0 -1 -1 -0 -0 -0 -0 0 0 -0 0 0 0 0 1 1 1 1 1 1 1 1 1 1
-1 -1 -1 -1 -1 -1 -1 -1 -1 -1 -1 -1 -1 -1 -1 -1 -1 -1 -1 -1 -1 -1 -1 -1 -1 -1 -0 -0 -0 -0 -0 -0 0 0 0 0 0 1 1 1 1 1 1
-1 -1 -1 -1 -1 -2 -2 -2 -2 -2 -2 -2 -2 -2 -2 -2 -2 -2 -2 -2 -1 -1 -1 -1 -1 -1 -1 -1 -1 -1 -1 -1 -1 -1 -0 -0 0 0 0 0 0 1 1
-2 -2 -2 -2 -2 -2 -2 -2 -2 -2 -2 -3 -3 -3 -3 -3 -3 -3 -2 -2 -2 -2 -2 -1 -1 -1 -1 -1 -1 -1 -1 -1 -1 -1 -1 -1 -0 -0 -0 -0 -0 -0 -0
-3 -3 -3 -3 -3 -3 -3 -3 -3 -3 -3 -3 -3 -3 -3 -3 -3 -3 -3 -2 -2 -2 -2 -2 -2 -2 -2 -2 -2 -2 -2 -2 -1 -1 -1 -1 -1 -1 -1 -1 -1 -1 -0
-3 -3 -3 -3 -3 -3 -3 -3 -3 -3 -3 -3 -3 -3 -3 -3 -3 -3 -3 -3 -3 -3 -3 -2 -3 -3 -3 -3 -2 -2 -2 -2 -2 -2 -1 -1 -1 -1 -1 -1 -1 -1 -1
-3 -3 -4 -4 -4 -4 -4 -4 -4 -4 -4 -4 -4 -4 -4 -4 -4 -3 -3 -3 -3 -3 -3 -3 -3 -3 -3 -3 -3 -3 -2 -2 -2 -2 -2 -2 -2 -2 -1 -1 -1 -1 -1
-4 -4 -4 -4 -4 -4 -4 -4 -5 -5 -5 -4 -4 -4 -4 -4 -4 -4 -4 -4 -4 -4 -4 -4 -4 -4 -3 -3 -3 -3 -3 -3 -3 -3 -2 -2 -2 -2 -2 -2 -2 -2 -1
-4 -4 -5 -5 -5 -5 -5 -5 -5 -5 -5 -5 -5 -5 -5 -5 -4 -4 -4 -4 -4 -4 -4 -4 -4 -4 -4 -4 -4 -3 -3 -3 -3 -3 -3 -3 -3 -2 -2 -2 -2 -2 -2
-5 -5 -5 -5 -5 -5 -5 -5 -5 -6 -6 -6 -6 -6 -6 -6 -5 -5 -5 -5 -5 -5 -5 -5 -5 -4 -4 -4 -4 -4 -4 -4 -4 -3 -3 -3 -3 -3 -3 -3 -2 -2 -2
-5 -5 -6 -6 -6 -6 -6 -6 -6 -6 -6 -6 -6 -6 -6 -6 -6 -6 -6 -5 -5 -5 -5 -5 -5 -5 -5 -5 -4 -4 -4 -4 -4 -4 -3 -3 -3 -3 -3 -3 -3 -2 -2
-6 -6 -6 -6 -6 -6 -6 -6 -6 -7 -7 -7 -7 -7 -6 -6 -6 -6 -6 -6 -6 -6 -6 -6 -5 -5 -5 -5 -5 -4 -4 -4 -4 -4 -4 -4 -4 -4 -4 -3 -3 -3 -2
-6 -7 -7 -7 -7 -7 -7 -7 -7 -7 -7 -7 -7 -7 -7 -7 -7 -7 -6 -6 -6 -6 -6 -6 -6 -6 -5 -5 -5 -5 -4 -4 -4 -4 -4 -4 -4 -4 -4 -3 -3 -3 -3
-7 -7 -7 -7 -7 -7 -7 -7 -7 -7 -7 -8 -7 -7 -7 -7 -7 -7 -7 -7 -7 -7 -6 -6 -6 -6 -6 -5 -5 -5 -5 -4 -4 -4 -4 -4 -4 -4 -4 -4 -3 -3 -3
-7 -7 -7 -7 -7 -7 -7 -8 -8 -8 -8 -8 -8 -8 -8 -8 -8 -7 -7 -7 -7 -7 -7 -7 -6 -6 -6 -6 -5 -5 -5 -5 -5 -4 -4 -4 -4 -4 -4 -4 -4 -3 -3
Wind_Speed
2 1 1 1 1 1 0 1 1 1 1 0 1 0 0 0 0 0 1 1 1 1 1 1 2 2 1 1 1 2 2 2 4 5 3 3 3 4 5 6 7 6 7
1 1 1 1 1 1 1 1 1 1 1 1 1 0 0 0 1 1 1 1 1 1 1 1 2 2 2 2 2 2 3 3 3 6 5 4 4 4 4 4 5 6 6
1 1 1 1 1 1 1 1 1 1 2 1 1 1 1 1 1 1 1 1 1 1 1 1 1 2 2 2 3 3 3 3 3 4 5 4 4 4 4 5 5 4 6
1 1 1 0 0 1 1 1 2 1 1 1 1 1 1 1 1 1 1 1 2 1 1 1 1 1 2 3 3 3 3 3 3 3 4 4 4 3 3 4 5 4 5
1 1 0 0 0 1 1 1 2 2 2 2 1 1 1 1 1 1 1 2 2 2 1 1 1 2 3 3 3 3 3 3 3 3 4 4 4 4 4 4 5 5 5
0 0 0 1 1 1 1 1 2 2 2 1 1 2 1 1 1 2 1 1 2 2 2 2 2 2 3 4 5 5 4 3 3 3 4 5 5 5 4 4 4 4 4
1 1 0 0 1 1 2 2 2 2 2 1 2 2 2 2 2 3 3 1 2 2 2 2 2 2 3 2 4 5 5 5 5 4 5 6 6 5 5 5 5 5 5
0 1 1 1 1 1 1 2 2 2 2 1 2 2 2 2 3 3 3 2 1 2 2 2 2 2 3 3 3 4 4 4 4 4 4 6 6 5 5 5 5 5 5
1 1 1 1 1 1 2 2 2 2 2 2 1 2 2 2 3 3 2 1 1 2 2 2 2 2 4 5 4 4 5 4 5 7 8 8 9 8 6 2 2 3 4
1 2 1 1 1 1 2 2 2 2 2 2 2 2 2 2 3 3 2 1 1 2 2 2 3 3 4 4 3 3 5 5 5 6 6 6 5 5 5 2 2 3 3
1 2 2 1 1 1 1 1 2 2 1 1 2 2 2 2 3 3 3 1 1 2 2 2 2 5 6 6 5 4 6 6 4 4 4 4 4 3 3 3 3 3 3
1 2 2 2 1 1 1 1 1 1 1 1 2 2 1 2 2 3 4 4 4 2 3 2 3 6 7 7 5 6 7 6 3 3 3 4 4 4 4 4 4 4 4
1 2 2 2 1 1 1 1 1 1 1 1 1 2 2 2 2 4 5 5 6 3 3 4 6 6 6 5 6 6 5 3 3 3 4 4 4 4 4 3 3 3 3
1 2 2 2 2 2 1 1 1 1 1 1 2 2 2 2 2 2 2 3 4 4 3 4 6 6 5 5 5 4 3 3 3 3 4 4 3 3 4 3 3 3 2
2 2 2 2 2 2 2 1 1 1 2 2 2 2 2 3 3 5 4 3 3 3 4 2 2 2 2 3 3 3 3 3 3 3 3 3 3 4 4 3 3 2 2
2 2 2 2 2 2 2 3 3 3 4 4 4 4 3 4 6 7 7 7 6 6 4 2 2 2 3 3 3 3 3 3 3 3 3 3 3 3 4 3 3 2 3
2 2 2 2 2 2 2 2 3 4 4 4 4 5 5 5 6 6 6 6 6 4 2 2 2 3 3 3 3 3 3 3 3 3 3 3 3 3 3 3 3 3 3
2 2 2 2 2 2 2 2 2 3 3 3 4 5 6 6 6 5 6 5 3 3 2 2 3 3 3 3 3 3 3 3 3 3 3 3 3 3 3 3 3 3 3
2 2 1 1 2 2 2 2 2 3 3 3 3 4 6 6 6 5 5 2 3 3 2 2 3 3 3 3 3 3 3 3 3 3 3 3 3 3 3 3 3 3 2
2 3 3 2 2 2 2 2 2 2 3 3 3 3 3 4 3 4 3 3 3 3 3 3 3 3 3 3 3 3 3 3 3 3 3 3 3 3 3 3 3 2 2
2 2 3 2 2 2 2 2 2 2 3 3 3 4 5 3 3 3 3 3 3 3 3 3 3 3 3 3 3 3 3 3 3 3 3 3 3 3 3 3 3 2 2
2 2 1 2 2 2 2 2 2 2 3 3 3 4 6 3 3 3 3 4 4 3 3 3 3 3 3 3 3 3 3 3 3 3 3 3 3 3 3 3 2 2 1
2 2 2 2 2 3 3 2 2 2 3 3 3 3 3 2 3 3 4 4 3 4 4 4 4 4 4 4 4 4 3 3 3 3 3 4 4 3 3 2 2 2 1
2 2 2 2 2 2 2 2 2 3 3 3 3 3 3 3 3 4 3 4 4 4 4 4 5 5 6 6 5 6 6 6 5 5 4 4 4 3 3 2 2 2 1
2 2 2 2 2 2 2 2 3 3 3 3 3 3 3 3 3 4 4 4 5 5 6 6 5 5 6 7 7 7 7 8 7 6 5 4 4 4 3 2 1 1 1
2 2 2 2 2 2 2 3 3 3 3 3 3 3 3 3 3 3 4 4 4 5 5 5 6 7 7 7 7 8 9 8 8 7 5 3 3 3 2 2 2 1 1
Wind_Direction
114 90 71 51 14 8 27 336 310 315 323 296 259 151 141 84 359 178 308 321 318 316 316 322 327 333 323 317 286 267 271 267 276 292 293 306 302 309 320 317 315 314 314
120 98 79 52 20 7 353 331 325 318 318 307 294 189 222 222 260 227 249 304 274 284 299 314 311 322 318 305 298 286 278 276 273 288 303 307 305 297 306 312 321 322 320
108 106 86 46 26 351 336 323 311 303 311 317 309 226 228 228 233 245 223 283 274 269 287 272 294 319 310 305 302 298 300 298 292 290 297 306 309 311 317 312 315 315 318
105 107 107 118 348 318 317 315 306 299 298 292 292 258 227 225 212 246 238 283 282 277 286 286 289 296 299 306 303 310 315 311 307 300 302 311 310 312 316 314 314 314 316
109 119 120 9 13 337 326 325 323 316 309 290 297 282 246 223 232 236 245 278 274 266 280 285 289 298 306 304 308 307 308 305 309 303 298 308 311 324 312 305 303 308 306
92 158 98 39 14 346 323 317 317 312 308 304 292 282 258 262 276 282 291 277 276 266 272 286 291 282 306 316 315 319 318 302 296 295 292 292 292 301 303 301 302 313 303
4 6 33 358 328 328 332 332 311 302 303 291 288 293 278 258 265 282 294 289 273 262 258 266 294 306 317 307 318 325 321 317 308 291 284 284 284 287 291 290 294 298 285
329 323 327 324 316 318 318 311 310 310 301 290 290 290 288 268 268 283 298 298 283 277 255 246 269 289 295 315 321 315 311 307 308 308 282 283 289 279 268 269 275 287 297
327 322 319 323 325 318 311 308 313 319 308 302 294 283 280 272 275 283 302 288 283 295 294 268 264 274 294 318 320 310 309 311 317 314 310 307 305 302 306 296 300 309 309
319 317 319 313 292 288 294 307 315 320 311 311 303 288 279 275 279 283 301 289 290 300 301 292 280 290 298 307 302 298 299 305 318 320 319 318 313 307 313 294 269 286 304
337 330 326 319 302 296 306 314 318 321 322 320 315 308 292 291 299 298 304 308 297 299 297 297 296 308 307 300 302 287 292 307 308 312 315 317 320 317 312 310 285 270 278
348 329 324 328 333 339 325 324 322 323 319 314 323 324 324 323 318 310 313 312 316 295 291 296 301 307 307 304 299 304 312 317 305 310 314 318 320 317 313 312 303 294 275
349 331 327 331 336 333 327 324 321 320 311 310 319 317 326 334 322 319 318 318 313 305 302 308 311 309 305 301 300 308 311 300 295 302 303 303 303 302 305 311 308 311 324
346 331 334 343 342 350 353 340 329 325 320 312 307 306 309 311 312 323 325 323 318 314 311 309 312 310 305 304 309 306 295 284 290 283 291 297 302 309 311 311 312 324 334
348 340 342 349 342 342 338 333 324 307 289 290 281 282 296 298 300 312 316 308 305 298 309 304 304 311 312 314 309 304 306 304 297 296 298 304 310 315 314 316 314 316 320
343 341 340 338 334 334 333 340 332 311 308 309 307 301 298 296 306 315 317 315 314 313 312 293 295 299 300 302 303 304 304 302 300 300 293 294 300 305 310 317 316 307 311
328 326 327 327 324 319 319 324 330 340 333 318 314 317 316 314 315 315 316 319 313 312 302 290 288 292 293 296 295 294 296 301 302 298 295 295 297 299 303 308 312 315 316
315 306 309 305 307 307 308 307 308 313 322 328 328 324 322 324 323 321 322 324 316 308 288 290 292 292 291 291 294 294 295 301 304 303 305 302 299 297 295 300 300 303 308
298 296 297 301 300 300 305 308 308 307 307 314 327 332 332 333 333 330 332 324 306 298 298 298 298 299 297 296 295 294 293 296 301 303 305 305 300 292 291 292 294 299 307
289 290 300 297 299 306 307 304 304 305 308 311 316 323 332 337 339 334 330 316 302 299 303 303 301 299 300 297 294 294 298 303 306 303 302 299 297 291 290 290 292 295 300
280 285 292 298 290 292 292 293 294 297 300 304 307 311 322 327 321 321 323 320 311 304 305 306 304 302 301 297 292 288 289 295 298 302 303 300 297 295 295 294 295 294 305
274 269 266 268 274 276 281 283 285 289 294 300 308 314 320 331 323 319 319 319 320 316 313 303 297 300 298 295 295 291 285 287 290 297 302 300 295 292 291 294 298 300 304
266 265 263 267 269 277 285 286 285 287 290 295 300 304 312 318 315 314 315 316 317 319 320 316 307 306 308 304 298 290 282 281 281 283 290 296 294 292 288 285 287 293 295
260 263 263 266 270 272 277 282 283 287 290 294 299 301 306 310 313 315 317 317 319 321 320 316 308 303 304 308 306 302 298 294 290 281 275 282 286 287 283 280 280 282 269
254 259 257 254 256 260 271 278 284 289 292 296 298 302 308 311 313 316 319 321 320 321 320 317 312 310 311 312 312 309 308 306 300 292 283 279 280 279 277 273 270 273 263
262 265 263 259 258 262 267 272 277 282 284 290 295 298 302 305 308 312 316 319 319 315 315 313 312 313 313 314 312 314 314 311 306 299 292 280 276 273 272 267 261 246 215
Height
1490 1490 1490 1492 1492 1492 1493 1493 1493 1493 1494 1494 1494 1495 1495 1495 1495 1496 1496 1496 1496 1496 1496 1497 1497 1498 1497 1497 1497 1497 1496 1495 1492 1490 1490 1488 1487 1485 1483 1482 1479 1477 1475
1488 1488 1489 1490 1490 1490 1490 1491 1491 1491 1491 1492 1492 1492 1492 1493 1493 1493 1493 1493 1494 1493 1493 1494 1494 1494 1494 1494 1494 1493 1493 1492 1490 1487 1486 1485 1483 1482 1480 1478 1476 1474 1472
1486 1487 1487 1487 1488 1488 1488 1488 1489 1488 1489 1489 1489 1489 1490 1490 1490 1490 1490 1491 1491 1490 1490 1490 1491 1491 1491 1491 1490 1490 1489 1489 1487 1485 1482 1481 1480 1478 1476 1474 1472 1470 1468
1485 1485 1485 1486 1486 1486 1486 1486 1486 1486 1486 1486 1486 1487 1487 1487 1488 1488 1488 1488 1488 1488 1488 1487 1487 1488 1488 1487 1487 1486 1486 1485 1483 1481 1479 1478 1476 1475 1473 1470 1468 1467 1465
1483 1483 1483 1484 1484 1484 1484 1484 1484 1484 1484 1484 1484 1484 1484 1485 1485 1485 1485 1485 1485 1484 1484 1484 1484 1485 1485 1485 1484 1483 1482 1481 1480 1478 1476 1475 1473 1471 1469 1467 1465 1463 1461
1481 1481 1481 1481 1482 1482 1482 1482 1482 1481 1481 1481 1481 1481 1481 1481 1482 1482 1481 1481 1481 1481 1481 1481 1482 1482 1482 1482 1481 1480 1480 1478 1476 1475 1473 1472 1470 1468 1466 1465 1463 1460 1457
1479 1479 1479 1480 1479 1479 1479 1479 1479 1479 1478 1478 1478 1478 1478 1478 1479 1479 1478 1478 1478 1478 1478 1478 1478 1478 1478 1478 1477 1477 1476 1475 1474 1472 1470 1469 1467 1465 1464 1462 1460 1458 1456
1477 1477 1477 1477 1477 1477 1477 1477 1476 1476 1476 1475 1475 1475 1475 1475 1475 1475 1475 1475 1475 1475 1475 1475 1474 1474 1475 1475 1474 1472 1471 1471 1470 1468 1467 1466 1464 1462 1461 1459 1457 1455 1453
1475 1475 1475 1475 1475 1475 1475 1475 1474 1474 1473 1473 1472 1472 1472 1471 1472 1472 1472 1472 1471 1471 1471 1471 1471 1471 1471 1471 1470 1469 1468 1467 1466 1465 1464 1462 1460 1459 1457 1456 1454 1452 1449
1473 1473 1473 1473 1473 1473 1473 1472 1472 1472 1471 1470 1470 1469 1469 1469 1469 1469 1469 1469 1468 1468 1468 1468 1468 1468 1468 1467 1467 1465 1464 1463 1462 1461 1460 1459 1457 1455 1454 1453 1451 1449 1447
1471 1471 1471 1471 1471 1471 1470 1470 1470 1469 1468 1468 1467 1467 1466 1466 1466 1466 1466 1466 1465 1465 1465 1464 1464 1464 1464 1464 1463 1462 1461 1460 1459 1458 1456 1455 1453 1452 1451 1449 1448 1447 1445
1469 1469 1469 1469 1468 1468 1468 1468 1467 1467 1466 1466 1465 1464 1464 1464 1464 1464 1464 1463 1463 1462 1461 1461 1461 1461 1460 1460 1459 1458 1457 1456 1455 1454 1453 1451 1450 1449 1448 1446 1445 1444 1443
1467 1467 1467 1466 1466 1466 1465 1465 1465 1464 1464 1463 1463 1462 1461 1461 1461 1461 1461 1460 1460 1459 1458 1458 1458 1457 1457 1456 1456 1455 1454 1453 1452 1451 1449 1448 1447 1446 1445 1443 1442 1441 1439
1465 1465 1464 1464 1463 1463 1463 1463 1462 1462 1461 1461 1460 1460 1459 1459 1458 1458 1457 1457 1457 1456 1455 1455 1454 1454 1453 1453 1452 1452 1451 1450 1449 1448 1446 1446 1445 1443 1442 1440 1439 1437 1436
1463 1463 1462 1462 1461 1461 1461 1460 1460 1460 1460 1459 1458 1457 1456 1456 1456 1456 1455 1454 1454 1453 1452 1451 1451 1450 1450 1449 1449 1448 1448 1447 1446 1445 1444 1443 1442 1440 1439 1438 1437 1435 1433
1461 1461 1460 1460 1459 1459 1458 1458 1458 1458 1457 1456 1456 1455 1454 1454 1453 1453 1452 1452 1451 1450 1449 1448 1447 1447 1446 1446 1446 1445 1444 1444 1443 1442 1441 1440 1439 1438 1437 1436 1434 1433 1432
1459 1458 1458 1457 1457 1456 1456 1455 1454 1454 1454 1453 1453 1452 1451 1451 1451 1450 1449 1449 1448 1447 1446 1445 1444 1444 1444 1443 1443 1442 1441 1441 1440 1439 1438 1437 1436 1435 1434 1433 1432 1431 1430
1457 1457 1456 1455 1455 1454 1454 1453 1452 1451 1451 1450 1450 1449 1448 1448 1448 1447 1446 1446 1445 1444 1443 1443 1442 1441 1441 1440 1440 1439 1438 1438 1437 1436 1436 1435 1434 1433 1432 1431 1430 1429 1428
1455 1454 1454 1453 1453 1452 1451 1451 1450 1449 1449 1448 1447 1446 1446 1445 1445 1444 1443 1442 1441 1441 1440 1440 1439 1439 1438 1437 1437 1436 1435 1435 1434 1434 1433 1432 1431 1431 1430 1429 1429 1428 1427
1452 1452 1452 1451 1450 1450 1449 1448 1448 1447 1446 1445 1444 1443 1443 1442 1441 1441 1440 1439 1439 1438 1437 1437 1436 1436 1435 1434 1434 1433 1433 1432 1432 1431 1430 1429 1429 1428 1428 1427 1427 1426 1425
1449 1449 1449 1448 1448 1447 1447 1446 1445 1445 1444 1443 1442 1441 1441 1440 1439 1438 1438 1437 1436 1435 1434 1434 1433 1432 1432 1431 1431 1430 1430 1429 1429 1428 1428 1427 1426 1426 1426 1425 1425 1424 1423
1446 1446 1445 1445 1445 1444 1444 1443 1443 1442 1441 1440 1439 1439 1438 1437 1436 1436 1435 1434 1433 1432 1432 1431 1430 1429 1428 1428 1428 1427 1427 1426 1426 1426 1425 1424 1424 1424 1423 1423 1422 1422 1421
1443 1442 1442 1442 1442 1441 1441 1440 1440 1439 1438 1438 1437 1436 1435 1434 1433 1433 1432 1431 1430 1429 1428 1427 1427 1426 1425 1425 1425 1425 1424 1424 1423 1423 1423 1422 1422 1421 1421 1421 1420 1420 1420
1439 1439 1439 1439 1439 1438 1438 1438 1437 1436 1436 1435 1434 1433 1432 1432 1431 1430 1429 1428 1427 1426 1425 1424 1423 1423 1422 1422 1421 1421 1421 1421 1421 1420 1420 1420 1419 1419 1419 1419 1419 1418 1418
1436 1436 1436 1436 1436 1435 1435 1435 1434 1433 1433 1432 1431 1430 1430 1429 1428 1427 1426 1425 1424 1423 1422 1421 1420 1419 1419 1418 1418 1418 1418 1418 1418 1418 1417 1417 1417 1417 1417 1417 1417 1417 1417
1434 1433 1433 1433 1433 1432 1432 1432 1431 1431 1430 1429 1429 1428 1427 1426 1425 1424 1423 1422 1421 1420 1419 1418 1417 1417 1416 1415 1415 1415 1415 1415 1415 1415 1415 1415 1415 1415 1415 1415 1415 1415 1415